TimeCDT,TemperatureF,Dew PointF,Humidity,Sea Level PressureIn,VisibilityMPH,Wind Direction,Wind SpeedMPH,Gust SpeedMPH,PrecipitationIn,Events,Conditions,WindDirDegrees,DateUTC
12:53 AM,54.0,44.1,69,30.03,10.0,East,4.6,-,N/A,,Clear,90,2013-05-06 05:53:00
1:53 AM,53.1,45.0,74,30.03,10.0,Calm,Calm,-,N/A,,Mostly Cloudy,0,2013-05-06 06:53:00
2:53 AM,53.1,44.1,71,30.03,10.0,ENE,4.6,-,N/A,,Clear,70,2013-05-06 07:53:00
3:53 AM,52.0,44.1,74,30.04,10.0,East,3.5,-,N/A,,Clear,100,2013-05-06 08:53:00
4:53 AM,51.1,45.0,80,30.04,10.0,Calm,Calm,-,N/A,,Clear,0,2013-05-06 09:53:00
5:53 AM,48.9,45.0,86,30.06,10.0,Calm,Calm,-,N/A,,Clear,0,2013-05-06 10:53:00
6:53 AM,52.0,46.9,83,30.06,10.0,NNE,3.5,-,N/A,,Clear,30,2013-05-06 11:53:00
7:53 AM,57.0,48.0,72,30.07,10.0,North,4.6,-,N/A,,Clear,10,2013-05-06 12:53:00
8:53 AM,63.0,50.0,63,30.08,10.0,North,4.6,-,N/A,,Clear,10,2013-05-06 13:53:00
9:53 AM,64.9,48.0,54,30.08,10.0,NNE,5.8,-,N/A,,Clear,30,2013-05-06 14:53:00
10:53 AM,68.0,48.0,49,30.07,10.0,NNE,6.9,-,N/A,,Clear,20,2013-05-06 15:53:00
11:53 AM,69.1,46.9,45,30.06,10.0,NNE,6.9,-,N/A,,Clear,30,2013-05-06 16:53:00
12:53 PM,71.1,46.9,42,30.04,10.0,North,5.8,-,N/A,,Clear,10,2013-05-06 17:53:00
1:53 PM,73.0,44.1,35,30.03,10.0,Calm,Calm,-,N/A,,Clear,0,2013-05-06 18:53:00
2:53 PM,73.9,46.9,38,30.01,10.0,ENE,4.6,-,N/A,,Partly Cloudy,60,2013-05-06 19:53:00
3:53 PM,73.0,46.9,39,30.00,10.0,Variable,3.5,-,N/A,,Partly Cloudy,0,2013-05-06 20:53:00
4:53 PM,72.0,46.0,40,30.00,10.0,East,3.5,-,N/A,,Overcast,80,2013-05-06 21:53:00
5:53 PM,71.1,46.0,41,30.00,10.0,NNW,4.6,-,N/A,,Overcast,340,2013-05-06 22:53:00
6:53 PM,72.0,44.1,37,29.99,10.0,East,5.8,-,N/A,,Overcast,100,2013-05-06 23:53:00
7:53 PM,68.0,50.0,52,30.00,10.0,SE,3.5,-,N/A,,Overcast,130,2013-05-07 00:53:00
8:53 PM,64.0,50.0,60,30.01,10.0,Calm,Calm,-,N/A,,Mostly Cloudy,0,2013-05-07 01:53:00
9:53 PM,59.0,52.0,78,30.02,10.0,Calm,Calm,-,N/A,,Clear,0,2013-05-07 02:53:00
10:53 PM,57.9,48.9,72,30.02,10.0,Calm,Calm,-,N/A,,Clear,0,2013-05-07 03:53:00
11:53 PM,57.0,48.0,72,30.02,10.0,Calm,Calm,-,N/A,,Mostly Cloudy,0,2013-05-07 04:53:00